DW7764 Weather Reports


Display with metric or nautical units.
time (UTC)temp
F
wind
direction
speed
MPH
gust
MPH
rain 1hr
in
rain 24hr
in
rain mn
in
humidity
%
barometer
mb
20260510220016 62 269 3.0 9.0 0.00 0.01 0.00 72 1015.7
20260510214514 62 281 3.0 9.0 0.00 0.01 0.01 72 1016.1
20260510213019 62 222 0.0 8.0 0.00 0.01 0.01 72 1016.3
20260510211519 63 314 4.0 11.0 0.00 0.01 0.01 70 1016.5
20260510210012 63 293 3.0 9.0 0.00 0.01 0.01 71 1016.6
20260510204530 63 277 2.0 8.0 0.00 0.01 0.01 73 1016.5
20260510203013 62 277 0.0 2.0 0.00 0.01 0.01 76 1016.2
20260510201512 63 274 1.0 6.0 0.00 0.01 0.01 77 1016.3
20260510200011 63 109 2.0 7.0 0.00 0.01 0.01 75 1016.2
20260510194514 64 187 3.0 8.0 0.00 0.01 0.01 73 1015.8
20260510193010 65 281 4.0 11.0 0.00 0.01 0.01 72 1015.8
20260510191520 65 200 3.0 14.0 0.00 0.01 0.01 69 1015.8
20260510190026 65 260 2.0 7.0 0.00 0.01 0.01 66 1015.5
20260510184509 66 268 3.0 11.0 0.00 0.02 0.01 61 1015.7
20260510183008 66 210 2.0 9.0 0.00 0.02 0.01 56 1015.4
20260510181526 68 195 1.0 9.0 0.00 0.02 0.01 54 1015.2
20260510180017 70 259 3.0 8.0 0.00 0.02 0.01 49 1015.0
20260510174506 69 217 1.0 5.0 0.00 0.04 0.01 49 1014.8
20260510173011 69 259 1.0 6.0 0.00 0.04 0.01 47 1014.7
20260510171505 71 210 3.0 11.0 0.00 0.04 0.01 46 1014.5
20260510170003 72 321 1.0 11.0 0.00 0.04 0.01 48 1014.5
20260510164502 73 219 2.0 9.0 0.00 0.25 0.01 48 1014.4
20260510163002 73 177 2.0 9.0 0.00 0.25 0.01 49 1014.3
20260510161601 74 120 2.0 11.0 0.00 0.25 0.01 47 1014.3
20260510160059 73 113 4.0 13.0 0.00 0.25 0.01 50 1014.2
20260510154558 75 201 2.0 6.0 0.00 0.38 0.01 48 1014.3
20260510153059 75 13 3.0 13.0 0.00 0.38 0.01 49 1014.4
20260510151604 75 167 3.0 11.0 0.00 0.38 0.01 49 1014.5
20260510150100 75 288 3.0 14.0 0.00 0.38 0.01 47 1014.7
20260510144553 75 83 2.0 7.0 0.00 0.49 0.01 49 1014.6
20260510143049 74 89 0.0 12.0 0.00 0.49 0.01 52 1014.8
20260510141547 74 186 3.0 10.0 0.00 0.49 0.01 51 1015.1
20260510140045 74 167 2.0 7.0 0.00 0.49 0.01 54 1015.3
20260510134551 74 205 2.0 9.0 0.00 0.51 0.01 52 1015.6
20260510133041 74 135 4.0 14.0 0.00 0.51 0.01 54 1015.5
20260510131540 73 267 3.0 8.0 0.00 0.51 0.01 56 1015.7
20260510130038 73 283 1.0 9.0 0.00 0.51 0.01 58 1015.8
20260510124538 73 105 3.0 8.0 0.00 0.51 0.01 62 1016.1
20260510123033 71 197 2.0 7.0 0.00 0.51 0.01 64 1016.2
20260510121532 70 155 2.0 7.0 0.00 0.51 0.01 63 1016.4
20260510120033 70 208 0.0 5.0 0.00 0.51 0.01 61 1016.5
20260510114530 71 255 3.0 10.0 0.00 0.51 0.01 61 1016.7
20260510113029 70 270 1.0 10.0 0.00 0.51 0.01 63 1016.8
20260510111528 72 146 3.0 10.0 0.00 0.51 0.01 61 1016.8
20260510110036 72 128 1.0 6.0 0.00 0.51 0.01 68 1016.9
20260510104523 71 252 4.0 9.0 0.00 0.51 0.01 68 1017.1
20260510103020 70 271 3.0 7.0 0.00 0.51 0.01 70 1017.2
20260510101516 68 278 1.0 7.0 0.00 0.51 0.01 79 1017.3
20260510100013 67 239 1.0 10.0 0.00 0.51 0.01 85 1017.5
20260510094510 64 222 1.0 10.0 0.00 0.51 0.01 96 1017.5
20260510093008 63 304 3.0 11.0 0.00 0.51 0.01 96 1017.6
20260510091504 62 292 2.0 9.0 0.00 0.51 0.01 97 1017.7
20260510090002 62 134 2.0 9.0 0.00 0.51 0.01 98 1017.6
20260510084601 60 225 3.0 8.0 0.00 0.51 0.01 99 1017.6
20260510083102 59 235 1.0 11.0 0.00 0.51 0.01 99 1017.7
20260510081553 59 181 2.0 11.0 0.00 0.51 0.01 100 1017.7
20260510080050 58 283 1.0 10.0 0.00 0.51 0.01 100 1017.5
20260510074602 57 267 2.0 8.0 0.00 0.51 0.01 100 1017.4
20260510073049 56 290 4.0 10.0 0.00 0.51 0.01 100 1017.4
20260510071555 55 301 4.0 11.0 0.00 0.51 0.01 100 1017.3
20260510070045 55 270 1.0 8.0 0.00 0.51 0.01 100 1017.3
20260510064603 55 271 1.0 5.0 0.00 0.51 0.01 100 1017.3
20260510063044 54 273 0.0 3.0 0.00 0.51 0.01 100 1017.3
20260510061544 53 257 0.0 4.0 0.00 0.51 0.01 100 1017.2
20260510060052 52 278 1.0 3.0 0.00 0.51 0.01 100 1017.2
20260510054542 51 304 1.0 4.0 0.00 0.51 0.01 100 1017.2
20260510053042 51 288 0.0 3.0 0.00 0.51 0.01 100 1017.1
20260510051552 50 288 0.0 3.0 0.00 0.51 0.01 100 1017.0
20260510050040 50 288 0.0 3.0 0.00 0.51 0.01 100 1017.0
20260510044540 50 288 0.0 2.0 0.00 0.51 0.01 100 1016.9
20260510043044 50 288 0.0 1.0 0.01 0.51 0.01 100 1017.1
20260510041544 51 288 0.0 1.0 0.01 0.51 0.01 100 1017.1
20260510040033 51 288 0.0 2.0 0.01 0.51 0.01 100 1017.2
20260510034533 50 288 0.0 0.0 0.01 0.51 0.01 100 1017.1
20260510033034 51 288 0.0 0.0 0.00 0.50 0.00 100 1017.1
20260510031532 51 288 0.0 1.0 0.00 0.50 0.00 100 1017.2
20260510030030 51 288 0.0 2.0 0.00 0.50 0.00 100 1017.2
20260510024530 51 288 0.0 1.0 0.00 0.50 0.00 100 1017.4
20260510023029 51 288 0.0 1.0 0.00 0.50 0.00 100 1017.6
20260510021532 51 288 0.0 0.0 0.00 0.50 0.00 100 1017.6
20260510020028 50 288 0.0 0.0 0.00 0.50 0.00 100 1017.4
20260510014528 50 288 0.0 0.0 0.00 0.50 0.00 99 1017.4
20260510013026 51 288 0.0 0.0 0.00 0.50 0.00 100 1017.2
20260510011533 51 288 0.0 0.0 0.00 0.50 0.00 100 1017.2
20260510010033 51 288 0.0 0.0 0.00 0.50 0.00 100 1017.3
20260510004518 52 288 0.0 0.0 0.00 0.50 0.00 100 1017.4
20260510003017 52 288 0.0 1.0 0.00 0.50 0.00 100 1017.6
20260510001515 52 288 0.0 0.0 0.00 0.50 0.00 99 1017.7
20260510000012 53 288 0.0 0.0 0.00 0.50 0.00 100 1018.1
20260509234510 53 288 0.0 0.0 0.00 0.50 0.00 100 1018.3
20260509233007 54 288 0.0 0.0 0.00 0.50 0.00 100 1018.2
20260509231504 55 288 0.0 1.0 0.00 0.50 0.00 99 1018.3
20260509230003 55 288 0.0 1.0 0.00 0.50 0.00 100 1018.3
20260509224502 55 288 0.0 2.0 0.00 0.50 0.00 99 1018.3
20260509223101 56 288 0.0 1.0 0.00 0.50 0.00 99 1018.3
20260509221612 56 288 0.0 2.0 0.00 0.50 0.00 99 1018.3